Location: Banff
(51.1667°N, 115.5667°W)
Time: 03:53:38
(UTC+00:00)

Vanguard 1 Rocket - Visible Passes

Search period start: 19 May 2021 00:00
Search period end: 29 May 2021 00:00
Orbit: 651 x 4225 km, 34.3° (Epoch: 18 May)

Date Brightness Start Highest point End Pass type
(mag) Time Alt. Az. Time Alt. Az. Time Alt. Az.
19 May 11.7 09:02:57 10° SE 09:07:25 11° SE 09:11:51 10° ESE visible
20 May 11.5 10:04:05 10° S 10:21:09 23° SE 10:37:11 10° E visible
21 May 11.5 08:57:17 10° SSE 09:08:41 15° SE 09:20:06 10° E visible
22 May 11.3 10:03:56 10° S 10:22:35 28° SE 10:40:32 10° E visible
23 May 11.3 08:55:29 10° SSE 09:09:55 20° SE 09:24:50 10° E visible
24 May 11.5 07:53:06 10° SE 07:57:59 11° ESE 08:03:00 10° ESE visible
24 May 11.2 10:04:25 10° SSW 10:24:00 33° SE 10:43:31 10° E visible
25 May 11.2 08:56:23 12° S 09:11:10 24° SE 09:28:28 10° E visible
26 May 11.3 07:48:37 10° SSE 07:59:04 15° SE 08:10:26 10° E visible
26 May 11.1 10:05:49 11° SSW 10:25:28 37° SSE 10:46:13 10° E visible
27 May 11.0 08:57:59 15° S 09:12:25 28° SE 09:31:33 10° E visible
28 May 11.1 07:50:06 13° SSE 08:00:11 19° SE 08:14:53 10° E visible
28 May 11.0 10:07:18 11° SSW 10:26:58 41° SSE 10:48:44 10° E visible
